Погода в Кырджали

Болгария     41°38′39″N   25°22′30″E
темп.,
°C
ветер,
м/с
пор.,
м/с
влажн.,
%
обл.,
%
осадки,
мм/ч
давл.,
гПа
погр.,
м
21 июня, пн
пн2100:00+17з118933 0.6 101311
03:00+16з118875 0.6 101211
06:00+15з11892 0.0 101211
09:00+20юз11765 0.0 1012345
12:00+24ссв235929 0.5 10121078
15:00+27всв134861 1.1 10111846
18:00+25ююв336415 0.3 1010421
21:00+21ююз117786 0.4 101111
22 июня, вт
вт2200:00+19ю1184100 0.3 101211
03:00+18юз11885 0.6 101211
06:00+17ссз228826 0.0 101211
09:00+21с12735 0.0 1013371
12:00+26ссв22574 0.0 10131095
15:00+29ссв2349100 0.0 10121547
18:00+28в2152100 0.0 1012949
21:00+23ююв22745 0.0 101215
23 июня, ср
ср2300:00+21ююз22915 0.1 101320
03:00+20зюз11890 0.1 101311
06:00+19сз11860 0.0 101411
09:00+24с12685 0.0 1015350
12:00+30с34480 0.0 10141023
15:00+33ссз37340 0.0 10132860
18:00+31св584210 0.0 1013462
21:00+25ссз016039 0.0 101511
24 июня, чт
чт2400:00+22с0169100 0.2 101611
03:00+22зюз1172100 0.2 101611
06:00+21зюз117396 0.0 101511
09:00+25в11637 0.0 1016267
12:00+30с34440 0.0 10161050
15:00+32ссв36380 0.0 10152353
18:00+32всв56410 0.0 1014815
21:00+25всв11690 0.0 101611
25 июня, пт
пт2500:00+23зюз11762 0.0 101711
03:00+22зюз11780 0.0 101611
06:00+21з11810 0.0 101611
09:00+26з11640 0.0 1016312
12:00+31св22460 0.0 10151075
15:00+33в23370 0.0 10141756
18:00+33юв4343100 0.0 1013717
21:00+27ююз2261100 0.0 101414